Weather History for KSLH - August, 2013

Change the Weather History Date:

Monday, August 26, 2013

  Actual Average (KPLN) Record (KPLN)
Temperature  
Mean Temperature 76 °F -  
Max Temperature 86 °F 75 °F 92 °F (1948)
Min Temperature 65 °F 54 °F 34 °F (1963)
Cooling Degree Days 11    
Growing Degree Days 26 (Base 50)    
Moisture  
Dew Point 66 °F    
Average Humidity 69    
Maximum Humidity 91    
Minimum Humidity 46    
Precipitation  
Precipitation 0.00 in - - ()
Sea Level Pressure  
Sea Level Pressure 29.96 in    
Wind  
Wind Speed 9 mph (WSW)    
Max Wind Speed 17 mph    
Max Gust Speed 24 mph    
Visibility 10 miles    
Events Rain    
Averages and records for this station are not official NWS values.
T = Trace of Precipitation, MM = Missing Value Source: NWS Daily Summary

Daily Weather History Graph

Daily Weather History Graph

Search for Another Location

Airport or City:

Trip Planner

Search our weather history database for the weather conditions in past years. The results will help you decide how hot, cold, wet, or windy it might be!

Date:

Astronomy

Aug. 26, 2013 Rise Set
Actual Time 6:52 AM EDT 8:26 PM EDT
Civil Twilight 6:20 AM EDT 8:57 PM EDT
Nautical Twilight 5:43 AM EDT 9:35 PM EDT
Astronomical Twilight 5:02 AM EDT 10:15 PM EDT
Moon 11:15 PM EDT (8/26) 1:13 PM EDT (8/26)
Length of Visible Light 14h 36m
Length of Day
13h 34m
Waning Gibbous, 67% of the Moon is Illuminated
Aug 26
Waning Gibbous
Aug 28
Last Quarter
Sep 5
New
Sep 12
First Quarter
Sep 19
Full

Hourly Weather History & Observations

Time (EDT) Temp. Heat Index Dew Point Humidity Pressure Visibility Wind Dir Wind Speed Gust Speed Precip Events Conditions
12:16 AM 79.3 °F - 64.4 °F 60% 29.97 in 10.0 mi SSW 9.2 mph - N/A   Clear
12:35 AM 79.2 °F - 64.6 °F 61% 29.97 in 10.0 mi SSW 8.1 mph - N/A   Clear
12:56 AM 79.2 °F - 64.9 °F 62% 29.97 in 10.0 mi SW 10.4 mph - N/A   Clear
1:16 AM 79.2 °F - 64.9 °F 62% 29.96 in 10.0 mi SW 11.5 mph 17.3 mph N/A   Clear
1:35 AM 79.2 °F - 65.3 °F 62% 29.96 in 10.0 mi SW 12.7 mph 16.1 mph N/A   Clear
1:56 AM 79.7 °F - 65.7 °F 62% 29.96 in 10.0 mi SW 11.5 mph - N/A   Scattered Clouds
2:16 AM 79.9 °F - 65.8 °F 62% 29.95 in 10.0 mi WSW 12.7 mph 23.0 mph N/A   Mostly Cloudy
2:35 AM 79.7 °F - 66.2 °F 63% 29.96 in 10.0 mi WSW 12.7 mph 18.4 mph N/A   Scattered Clouds
2:56 AM 79.7 °F - 66.4 °F 64% 29.95 in 10.0 mi WSW 13.8 mph 20.7 mph N/A   Clear
3:16 AM 80.1 °F 82.2 °F 66.4 °F 63% 29.94 in 10.0 mi WSW 15.0 mph 23.0 mph N/A   Mostly Cloudy
3:35 AM 80.1 °F 82.3 °F 66.9 °F 64% 29.94 in 10.0 mi WSW 16.1 mph 21.9 mph N/A   Overcast
3:56 AM 80.1 °F 82.4 °F 67.5 °F 65% 29.94 in 10.0 mi WSW 17.3 mph 23.0 mph N/A   Overcast
4:15 AM 79.7 °F - 67.3 °F 66% 29.94 in 10.0 mi WSW 17.3 mph 24.2 mph N/A   Overcast
4:36 AM 78.6 °F - 67.1 °F 68% 29.93 in 10.0 mi SW 15.0 mph 24.2 mph N/A   Mostly Cloudy
4:56 AM 75.9 °F - 68.0 °F 76% 29.94 in 10.0 mi WSW 8.1 mph - N/A Rain Light Rain
5:15 AM 75.7 °F - 67.5 °F 75% 29.94 in 10.0 mi WSW 10.4 mph - N/A   Scattered Clouds
5:36 AM 76.3 °F - 66.7 °F 72% 29.95 in 10.0 mi WSW 9.2 mph - N/A   Mostly Cloudy
5:55 AM 77.4 °F - 66.2 °F 68% 29.98 in 10.0 mi West 12.7 mph 18.4 mph N/A   Overcast
6:16 AM 74.5 °F - 67.6 °F 79% 30.01 in 10.0 mi NW 17.3 mph 23.0 mph N/A Rain Rain
6:36 AM 72.5 °F - 68.0 °F 86% 30.02 in 7.0 mi Calm Calm - N/A Rain Rain
6:55 AM 71.6 °F - 67.6 °F 87% 30.01 in 10.0 mi Calm Calm - N/A   Mostly Cloudy
7:16 AM 71.1 °F - 68.2 °F 91% 29.98 in 7.0 mi South 4.6 mph - N/A Rain Light Rain
7:36 AM 71.1 °F - 68.2 °F 91% 29.98 in 7.0 mi SSW 5.8 mph - N/A Rain Light Rain
7:55 AM 71.1 °F - 68.4 °F 91% 29.99 in 5.0 mi South 3.5 mph - N/A Rain Rain
8:16 AM 71.2 °F - 68.4 °F 91% 29.97 in 7.0 mi SSW 6.9 mph - N/A Rain Light Rain
8:35 AM 72.0 °F - 68.5 °F 89% 29.99 in 7.0 mi SW 11.5 mph 17.3 mph N/A Rain Rain
8:56 AM 72.1 °F - 68.2 °F 87% 29.96 in 10.0 mi SSW 9.2 mph - N/A Rain Light Rain
9:15 AM 72.5 °F - 68.5 °F 87% 29.96 in 10.0 mi SW 10.4 mph 16.1 mph N/A   Scattered Clouds
9:36 AM 72.7 °F - 69.1 °F 88% 29.95 in 7.0 mi SSW 8.1 mph - N/A   Scattered Clouds
9:56 AM 72.9 °F - 69.3 °F 88% 29.95 in 7.0 mi SSW 10.4 mph - N/A   Clear
10:16 AM 73.6 °F - 68.9 °F 85% 29.96 in 7.0 mi SW 11.5 mph - N/A   Clear
10:35 AM 74.3 °F - 68.9 °F 83% 29.98 in 10.0 mi WSW 6.9 mph - N/A   Clear
10:56 AM 74.5 °F - 68.7 °F 82% 29.98 in 10.0 mi SW 10.4 mph - N/A   Clear
11:16 AM 76.5 °F - 69.8 °F 80% 29.97 in 10.0 mi SW 9.2 mph - N/A   Clear
11:35 AM 78.4 °F - 69.1 °F 73% 29.97 in 10.0 mi SW 13.8 mph 17.3 mph N/A   Clear
11:56 AM 80.2 °F 83.0 °F 68.5 °F 67% 29.98 in 10.0 mi WSW 15.0 mph - N/A   Clear
12:16 PM 81.9 °F 84.8 °F 68.4 °F 63% 29.98 in 10.0 mi SW 10.4 mph 18.4 mph N/A   Clear
12:35 PM 83.3 °F 86.2 °F 67.6 °F 59% 29.98 in 10.0 mi SW 11.5 mph 17.3 mph N/A   Clear
12:56 PM 84.0 °F 86.8 °F 67.5 °F 57% 29.97 in 10.0 mi WSW 8.1 mph - N/A   Clear
1:15 PM 84.4 °F 87.1 °F 66.9 °F 56% 29.97 in 10.0 mi West 12.7 mph - N/A   Scattered Clouds
1:36 PM 85.1 °F 87.4 °F 66.0 °F 53% 29.97 in 10.0 mi West 10.4 mph 19.6 mph N/A   Scattered Clouds
1:56 PM 86.2 °F 87.9 °F 64.9 °F 49% 29.97 in 10.0 mi West 8.1 mph 16.1 mph N/A   Scattered Clouds
2:15 PM 86.2 °F 87.3 °F 63.5 °F 47% 29.97 in 10.0 mi WSW 6.9 mph - N/A   Clear
2:36 PM 86.2 °F 87.3 °F 64.0 °F 47% 29.97 in 10.0 mi West 8.1 mph 16.1 mph N/A   Scattered Clouds
2:56 PM 85.8 °F 86.6 °F 63.0 °F 46% 29.96 in 10.0 mi West 11.5 mph 17.3 mph N/A   Clear
3:16 PM 84.7 °F 86.3 °F 64.6 °F 51% 29.96 in 10.0 mi NNW 9.2 mph - N/A   Clear
3:35 PM 84.0 °F 86.3 °F 66.2 °F 55% 29.95 in 10.0 mi NNW 6.9 mph - N/A   Clear
3:56 PM 83.3 °F 85.9 °F 67.1 °F 58% 29.94 in 10.0 mi North 8.1 mph - N/A   Clear
4:16 PM 82.9 °F 85.6 °F 67.1 °F 59% 29.93 in 10.0 mi North 6.9 mph - N/A   Clear
4:35 PM 84.6 °F 86.3 °F 65.3 °F 52% 29.93 in 10.0 mi WNW 6.9 mph - N/A   Clear
4:56 PM 83.5 °F 85.3 °F 65.5 °F 54% 29.93 in 10.0 mi NW 6.9 mph - N/A   Clear
5:15 PM 84.2 °F 86.1 °F 65.5 °F 53% 29.94 in 10.0 mi NW 9.2 mph - N/A   Clear
5:36 PM 83.7 °F 84.7 °F 63.0 °F 50% 29.94 in 10.0 mi NW 9.2 mph - N/A   Clear
5:55 PM 83.7 °F 84.9 °F 63.7 °F 51% 29.94 in 10.0 mi WNW 6.9 mph - N/A   Clear
6:16 PM 82.9 °F 84.4 °F 64.2 °F 53% 29.94 in 10.0 mi WNW 6.9 mph - N/A   Clear
6:35 PM 83.3 °F 84.8 °F 64.6 °F 53% 29.95 in 10.0 mi West 8.1 mph - N/A   Clear
6:56 PM 82.4 °F 83.9 °F 64.4 °F 54% 29.95 in 10.0 mi West 8.1 mph - N/A   Clear
7:16 PM 81.3 °F 83.2 °F 65.1 °F 58% 29.94 in 10.0 mi West 8.1 mph - N/A   Clear
7:35 PM 80.4 °F 82.2 °F 65.1 °F 59% 29.95 in 10.0 mi WSW 8.1 mph - N/A   Clear
7:56 PM 77.9 °F - 64.8 °F 64% 29.94 in 10.0 mi WSW 8.1 mph - N/A   Clear
8:15 PM 76.8 °F - 64.6 °F 66% 29.95 in 10.0 mi WSW 5.8 mph - N/A   Clear
8:35 PM 75.4 °F - 64.9 °F 70% 29.95 in 10.0 mi Calm Calm - N/A   Clear
8:55 PM 74.3 °F - 64.9 °F 72% 29.95 in 10.0 mi Calm Calm - N/A   Clear
9:15 PM 71.8 °F - 64.8 °F 78% 29.95 in 10.0 mi Calm Calm - N/A   Clear
9:36 PM 71.1 °F - 65.1 °F 81% 29.96 in 10.0 mi Calm Calm - N/A   Clear
9:56 PM 70.7 °F - 65.3 °F 83% 29.96 in 10.0 mi Calm Calm - N/A   Clear
10:08 PM 69.8 °F - 64.6 °F 83% 29.96 in 10.0 mi West 3.5 mph - N/A   Clear
10:36 PM 69.8 °F - 64.4 °F 83% 29.96 in 10.0 mi Calm Calm - N/A   Clear
10:55 PM 68.9 °F - 64.4 °F 86% 29.96 in 10.0 mi Calm Calm - N/A   Clear
11:13 PM 68.0 °F - 64.4 °F 88% 29.95 in 10.0 mi Calm Calm - N/A   Clear
11:35 PM 66.7 °F - 63.9 °F 90% 29.96 in 10.0 mi Calm Calm - N/A   Clear
11:56 PM 65.8 °F - 63.1 °F 91% 29.96 in 10.0 mi Calm Calm - N/A   Clear